Home > Weather > Kiritimati > Past weeks

Flag for Kiribati Past Weather in Kiritimati, Christmas Island, Kiribati — Yesterday and Last 2 Weeks

Now
79 °F

Scattered clouds.


Feels Like: 82 °F
Forecast: 77 / 80 °F
Wind: 9 mph from Southeast

Location: Christmas / Cassidy

Current Time: Jul 1, 2016 at 5:58:33 AM

Latest Report: Jul 1, 2016 at 5:00 AM


Visibility: N/A

Pressure: 29.83 "Hg

Humidity: 79%

Dew Point: 72 °F

Location of KiritimatiLocation

Past Weather in Kiritimati — Graph

°F

Kiritimati Temperature Yesterday

Maximum temperature yesterday: 84 °F (at 11:00 AM)
Minimum temperature yesterday: 77 °F (at 12:00 AM)
Average temperature yesterday: 80 °F

High & Low Weather Summary for the Past Weeks

 TemperatureHumidityPressure
High88 °F (Jun 18, 11:00 AM)94% (Jun 19, 5:00 AM)29.95 "Hg (Jun 19, 5:00 AM)
Low77 °F (Jun 19, 5:00 AM)62% (Jun 17, 10:00 AM)29.74 "Hg (Jun 18, 4:00 PM)
Average81 °F76%29.82 "Hg
* Reported Jun 16 5:00 AM — Jul 1 4:00 AM, Kiritimati, Weather by CustomWeather, © 2016

Note: Actual official high and low records may vary slightly from our data, if they occured in-between our weather recording intervals... More about our weather records

Advertising

Kiritimati Weather History for the Previous 24 Hours

Scroll right to see more
 ConditionsComfort  
Time TempWeatherWind HumidityBarometerVisibility
4:00 AM
Fri, Jul 1
79 °FPassing clouds.12 mph79%29.83 "HgN/A
3:00 AM79 °FPassing clouds.14 mph79%29.83 "HgN/A
2:00 AM79 °FPassing clouds.14 mph79%29.86 "HgN/A
1:00 AM79 °FPassing clouds.12 mph79%29.86 "HgN/A
12:00 AM81 °FPassing clouds.15 mph79%29.89 "HgN/A
11:00 PM
Thu, Jun 30
79 °FPassing clouds.9 mph84%29.89 "HgN/A
10:00 PM79 °FPassing clouds.14 mph84%29.89 "HgN/A
9:00 PM79 °FPassing clouds.12 mph84%29.89 "HgN/A
8:00 PM79 °FPassing clouds.7 mph74%29.86 "HgN/A
7:00 PM79 °FPassing clouds.9 mph84%29.83 "HgN/A
6:00 PM79 °FPassing clouds.10 mph79%29.83 "HgN/A
5:00 PM81 °FPassing clouds.6 mph70%29.80 "HgN/A
4:00 PM82 °FScattered clouds.12 mph70%29.80 "HgN/A
3:00 PM82 °FScattered clouds.14 mph70%29.80 "HgN/A
2:00 PM82 °FPartly sunny.14 mph70%29.83 "HgN/A
1:00 PM84 °FScattered clouds.12 mph66%29.86 "HgN/A
12:00 PM84 °FPassing clouds.12 mph66%29.86 "HgN/A
11:00 AM84 °FPassing clouds.14 mph66%29.89 "HgN/A
10:00 AM82 °FPassing clouds.12 mph70%29.89 "HgN/A
9:00 AM81 °FPassing clouds.18 mph74%29.89 "HgN/A
8:00 AM81 °FPassing clouds.17 mph70%29.89 "HgN/A
7:00 AM77 °FPassing clouds.10 mph79%29.89 "HgN/A
6:00 AM77 °FPassing clouds.12 mph79%29.86 "HgN/A
5:00 AM77 °FPassing clouds.16 mph79%29.83 "HgN/A
Weather by CustomWeather, © 2016

See weather overviewHow to use our weather pages